USA 270

Last updated on Sat Aug 24 2024 00:02:41 GMT+0000 (Coordinated Universal Time)

1 41744U 16052A 24234.93125000 -.00000291 00000+0 00000+0 0 9990 2 41744 2.4817 85.6903 0000313 82.4048 237.8685 1.00144883 21469
UTC large
Height (km)
Speed (km/s)
/
Latitude / Longitude
Inclination (degrees)
Orbital Period (minutes)
Azimuth
Elevation
Range (km)
Doppler Factor

Next 0 passes for location: London (51.5072 / 0.1276)

Sorry there are no passes over London.